www.pogodaiklimat.ru

Погода и климат >> Архив погоды >> Ирак >> Басра аэропорт


ПОГОДА в Басре аэропорт

  • Прогноз погоды в Басре аэропорт
  • Монитор погоды в Басре аэропорт

АРХИВ ПОГОДЫ в Басре аэропорт

Время (UTC), дата Ветер
(напр.,м/с)
 
Видим.   Явления Облачность Т
(С)
Тd
(С)
f
(%)
Тe
(С)
Тes
(С)
Комфортность P
(гПа)
Po
(гПа)
Тmin
(С)
Tmax
(С)
R
(мм)
R24
(мм)
S
(см)
06 15.08 СЗ 7 10 км 4/0
[Ac trans Ci fib]
+40.2 +8.8 15 +38 +41 очень
жарко
1002.4 1002.1 +30.4
09 15.08 З 8 10 км 4/0
[Ac trans Ci sp]
+46.1 +7.7 10
12 15.08 СЗ 9 10 км 4/1 1200 м
[Cu hum Ac trans]
+47.8 +6.8 9 +45 +46 опасность
перегрева
999.8 999.5
15 15.08 З 7 10 км 5/3 1200 м
[Cu hum Ac trans]
+43.6 +11.7 15 +43 +43 опасность
перегрева
999.4 999.1
18 15.08 З 4 10 км 4/0
[Ac trans Ci sp]
+37.2 +15.1 27 +38 +38 душно 1001.1 1000.8 +48.5
21 15.08 З 5 10 км 4/0
[Ac trans Ci sp]
+35.5 +14.5 29 +37 +37 душно 1001.4 1001.1
00 16.08 З 7 10 км 3/3 1200 м
[Cu hum Ac trans]
+33.7 +9.3 22 +32 +32 жарко 1000.8 1000.5
03 16.08 З 5 10 км 1/1 1200 м
[Cu hum Ac trans]
+31.0 +10.1 27 +31 +31 жарко 1001.8 1001.5
06 16.08 З 10 10 км 3/0
[Ac trans]
+39.2 +6.7 14 +37 +37 очень
жарко
1002.4 1002.1 +30.6
15 16.08 З 6 10 км ясно +42.6 +2.1 8 +39 +39 очень
жарко
999.0 998.7
18 16.08 З 5 10 км ясно +34.6 +4.9 16 +32 +32 жарко 1000.3 1000.0 +47.5
21 16.08 З 4 10 км ясно +31.0 +16.1 41 +34 +34 душно 1000.2 999.9
00 17.08 З 5 10 км ясно +29.6 +14.4 40 +32 +32 душно 999.5 999.2
03 17.08 З 5 10 км ясно +28.1 +12.4 38 +29 +30 жарко 1000.0 999.7
06 17.08 З 8 10 км ясно +37.2 +9.9 19 +36 +38 очень
жарко
1000.9 1000.6 +27.8
09 17.08 З 6 10 км ясно +43.3 +5.9 11 +41 +49 опасность
перегрева
1000.3 1000.0
12 17.08 ЮЗ 10 10 км ясно +44.4 +0.1 7 +41 +41 опасность
перегрева
998.5 998.2
15 17.08 З 8 10 км ясно +40.7 +0.1 8 +37 +37 очень
жарко
998.2 997.9
21 17.08 ЮЗ 3 10 км ясно +29.4 +9.3 29 +29 +29 жарко 999.3 999.0
00 18.08 ЮЗ 2 10 км ясно +26.5 +9.7 35 +27 +27 жарко 999.1 998.8
03 18.08 ЮЗ 3 10 км ясно +25.1 +2.6 23 +24 +24 комфорт 1000.4 1000.1
06 18.08 ЮЗ 5 10 км ясно +36.9 +2.7 12 +34 +40 очень
жарко
1001.6 1001.3 +24.1
09 18.08 СЗ 7 10 км ясно +42.4 +7.8 13 +40 +46 очень
жарко
1001.3 1001.0
15 18.08 З 4 10 км ясно +41.2 +8.5 14 +39 +39 очень
жарко
1000.9 1000.6
18 18.08 штиль 0 10 км ясно +33.4 +9.9 24 +33 +33 жарко 1002.0 1001.7 +43.6
21 18.08 ЮЗ 2 10 км ясно +31.2 +9.5 26 +31 +31 жарко 1002.6 1002.3
00 19.08 штиль 0 10 км ясно +29.5 +9.3 28 +29 +29 жарко 1002.1 1001.8
03 19.08 ЮЗ 2 10 км ясно +27.4 +9.6 33 +28 +28 жарко 1003.3 1003.0
06 19.08 ЮЗ 3 10 км ясно +37.3 +12.6 23 +37 +47 очень
жарко
1004.6 1004.3 +26.1
09 19.08 СЗ 5 10 км ясно +43.6 +8.1 12 +41 +52 опасность
перегрева
1004.0 1003.7
12 19.08 СЗ 6 10 км ясно +45.4 +9.4 12 +44 +48 опасность
перегрева
1003.0 1002.7
15 19.08 З 3 10 км ясно +41.9 +7.4 13 +40 +40 очень
жарко
1003.0 1002.7
18 19.08 З 4 10 км ясно +33.8 +9.8 23 +33 +33 жарко 1004.2 1003.9 +45.5
21 19.08 З 2 10 км ясно +30.3 +13.0 35 +32 +32 жарко 1004.0 1003.7
03 20.08 З 3 10 км ясно +27.0 +9.5 33 +27 +28 жарко 1004.2 1003.9
06 20.08 З 2 10 км ясно +38.3 +10.1 18 +37 +49 очень
жарко
1005.5 1005.2 +26.4
09 20.08 СЗ 9 10 км ясно +45.2 +9.0 12 +43 +45 опасность
перегрева
1004.6 1004.3
12 20.08 СЗ 5 10 км ясно +46.5 +6.5 9 +44 +49 опасность
перегрева
1003.3 1003.0
15 20.08 З 3 10 км ясно +42.6 +5.3 10 +40 +40 очень
жарко
1002.8 1002.5
18 20.08 З 2 10 км ясно +34.8 +8.4 20 +33 +33 жарко 1003.3 1003.0 +47.7
21 20.08 З 6 10 км ясно +32.7 +13.0 30 +33 +33 жарко 1003.0 1002.7
00 21.08 З 2 10 км ясно +28.3 +14.3 42 +30 +30 жарко 1002.7 1002.4
03 21.08 ЮЗ 2 10 км ясно +26.3 +13.2 44 +28 +29 жарко 1003.0 1002.7
06 21.08 З 3 10 км ясно +39.5 +11.1 18 +38 +48 очень
жарко
1004.3 1004.0 +26.2
09 21.08 З 6 10 км ясно +46.5 +5.5 9 +44 +52 опасность
перегрева
1003.2 1002.9
15 21.08 З 4 10 км ясно +44.8 +5.0 9 +42 +42 опасность
перегрева
1001.0 1000.7
18 21.08 З 4 10 км ясно +35.4 +14.0 28 +36 +36 очень
жарко
1001.6 1001.3 +49.5
21 21.08 З 5 10 км ясно +32.3 +14.2 33 +34 +34 душно 1001.7 1001.4
00 22.08 З 4 10 км ясно +30.0 +14.1 38 +32 +32 жарко 1001.5 1001.2

 

Местоположение метеостанции Басра аэропорт (Ирак): широта 30.52 долгота 47.78 высота над уровнем моря 3 м.

В архиве по умолчанию представлена погода в Басре аэропорт за последнюю неделю. Архивные данные за месяц целиком и за предыдущие месяцы, начиная с января 2011 года, Вы можете получить, выбрав интересующий диапазон дат из раскрывающегося списка и нажав кнопку "Ввод!".


*Определитесь, кто Вы:
робот инопланетянин человек

Внимание! Время в таблицах - всемирное. Для получения местного времени необходимо прибавить поправку, которая равна 3 ч.

Смотрите также архив погоды в соседних городах и на ближайших метеорологических станциях:

Погода в Басре (Ирак) (6 км)
Погода в Абадане (Иран) (48 км)
Погода в Абдали (Кувейт) (50 км)
Погода на Метеостанции Sabriyah (Кувейт) (86 км)
Погода на Метеостанции Mintribah (Кувейт) (87 км)
Погода в Эль-Фао (Ирак) (92 км)
Погода на Бубияне (Кувейт) (101 км)
Погода на Метеостанции Jal Aliyah (Кувейт) (103 км)
Погода в Ахвазе (Иран) (124 км)
Погода Остров Файлака (Кувейт) (126 км)

Пояснения к столбцам:

Ветер - указаны скорость ветра в м/с - средняя за 10 мин, порывы в срок и между сроками (в фигурных скобках) и направление, откуда дует ветер: С - северный, СВ - северо-восточный, В - восточный, ЮВ - юго-восточный, Ю - южный, ЮЗ - юго-западный, З - западный, СЗ - северо-западный.
Видимость - горизонтальная дальность видимости в метрах или километрах. При видимости от 1 до 10 км при отсутствии осадков обычно наблюдается дымка, при ухудшении видимости до 1 км и менее - туман. В сухую погоду видимость может ухудшаться дымом, пылью или мглою.
Явления - указаны атмосферные явления, наблюдавшиеся в срок или в последний час перед сроком; фигурными скобками обозначены явления, наблюдавшиеся между сроками (за 1-3 часа до срока); квадратными скобками обозначены град или гололедные отложения с указанием их диаметра в мм.
Облачность - указаны через наклонную черту общая и нижняя облачность в баллах и высота нижней границы облаков в метрах; квадратными скобками обозначены формы облаков: Ci - перистые, Cs - перисто-слоистые, Cc - перисто-кучевые, Ac - высококучевые, As - высокослоистые, Sc - слоисто-кучевые, Ns - слоисто-дождевые, Cu - кучевые, Cb - кучево-дождевые. Подробнее классификацию облаков см. в Атласе облаков (PDF).
T - Температура воздуха - температура, измеренная на высоте 2 м над землей.
Td - Температура точки росы - температура, при понижении до которой содержащийся в воздухе водяной пар достигнет насыщения.
f - Относительная влажность воздуха - влажноcть воздуха, измеренная на высоте 2 м над землей.
Te - Эффективная температура - температура, которую ощущает одетый по сезону человек в тени. Характеристика душности погоды. При расчете учитывается влияние влажности воздуха и скорости ветра на теплоощущения человека.
Tes - Эффективная температура на солнце - температура, которую ощущает человек, с поправкой на солнечный нагрев. Характеристика знойности погоды. Зависит от высоты солнца над горизонтом, облачности и скорости ветра. Ночью, в пасмурную погоду, а также при ветре 12 м/с и более поправка равна нулю.
P - Атмосферное давление - приведенное к уровню моря атмосферное давление.
Po - Атмосферное давление - измеренное на уровне метеостанции атмосферное давление.
Tmin - Минимальная температура - минимум температуры воздуха на высоте 2 м над землей.
Tmax - Максимальная температура - максимум температуры воздуха на высоте 2 м над землей.
R - Количество осадков - Количество выпавших осадков за период времени, мм. При наведении курсора мыши на число - период времени, за который выпало указанное количество осадков.
R24 - Количество осадков - Количество выпавших осадков за 24 часа, мм.
S - Снежный покров - Высота снежного покрова, см. При наведении курсора мыши на число - состояние снежного покрова и степень покрытия местности в баллах.